Station BABT2 - 8776604 - Baffin Bay, TX Image indicating link to RSS feed of recent meteorological observations for station BABT2


Conditions at BABT2 as of
(2:30 pm CDT)
1930 GMT on 04/16/2024:
     

Click on the graph icon in the table below to see a time series plot of the last five days of that observation.

5-day plot - Wind Direction Wind Direction (WDIR): E ( 90 deg true )
5-day plot - Wind Speed Wind Speed (WSPD): 17.1 kts
5-day plot - Wind Gust Wind Gust (GST): 21.0 kts
5-day plot - Atmospheric Pressure Atmospheric Pressure (PRES):29.80 in
5-day plot - Air Temperature Air Temperature (ATMP): 76.1 °F
5-day plot - Water Temperature Water Temperature (WTMP): 82.0 °F
5-day plot - Wind Speed at 10 Meters Wind Speed at 10 meters (WSPD10M): 17.5 kts
5-day plot - Wind Speed at 20 Meters Wind Speed at 20 meters (WSPD20M): 19.4 kts
5-day plot -  Wind Speed, Wind Gust and Atmospheric Pressure Combined plot of Wind Speed, Gust, and Air Pressure
Previous observations
TIME
(CDT)
5-day plot - Wind Direction
WDIR
 
5-day plot - Wind Speed
WSPD
kts
5-day plot - Wind Gust
GST
kts
5-day plot - Wave Height
WVHT
ft
5-day plot - Dominant Wave Period
DPD
sec
5-day plot - Average Wave Period
APD
sec
5-day plot - Mean Wave Direction
MWD
 
5-day plot - Atmospheric Pressure
PRES
in
5-day plot - Pressure Tendency
PTDY
in
5-day plot - Air Temperature
ATMP
°F
5-day plot - Water Temperature
WTMP
°F
5-day plot - Dew Point
DEWP
°F
5-day plot - Salinity
SAL
psu
5-day plot - Visibility
VIS
nmi
5-day plot - Tide (above MLLW)
TIDE
ft
2024-04-16 02:24 pm E 15.0 20.0----29.81- 76.5 82.0----
2024-04-16 02:18 pm E 15.9 20.0----29.80- 76.5 82.4----
2024-04-16 02:12 pm E 17.1 21.0----29.80- 76.6 82.4----
2024-04-16 02:06 pm E 17.1 20.0----29.81- 76.8 82.4----
2024-04-16 02:00 pm E 17.1 20.0----29.81-0.04 77.0 82.4----
2024-04-16 01:54 pm E 14.0 21.0----29.81- 77.4 82.4----
2024-04-16 01:48 pm E 17.1 21.0----29.80- 77.2 82.4----
2024-04-16 01:42 pm E 17.1 21.0----29.80- 77.0 82.4----
2024-04-16 01:36 pm E 17.1 20.0----29.81- 77.0 82.2----
2024-04-16 01:30 pm E 14.0 18.1----29.82- 77.2 82.0----
2024-04-16 01:24 pm E 15.9 19.0----29.82- 76.8 81.9----
2024-04-16 01:18 pm E 14.0 19.0----29.82- 77.0 81.5----
2024-04-16 01:12 pm E 13.0 19.0----29.82- 77.2 81.3----
2024-04-16 01:06 pm E 13.0 18.1----29.82- 77.0 81.3----
2024-04-16 01:00 pm E 14.0 18.1----29.83+0.01 76.8 81.1----
2024-04-16 12:54 pm E 13.0 17.1----29.83- 76.6 81.1----
2024-04-16 12:48 pmESE 14.0 17.1----29.83- 76.6 81.0----
2024-04-16 12:42 pm E 13.0 18.1----29.83- 76.6 80.8----
2024-04-16 12:36 pm E 14.0 18.1----29.83- 76.8 80.6----
2024-04-16 12:30 pmESE 12.0 17.1----29.83- 77.0 80.4----
2024-04-16 12:24 pmESE 14.0 18.1----29.83- 76.6 80.4----
2024-04-16 12:18 pmESE 14.0 19.0----29.83- 76.6 80.2----
2024-04-16 12:12 pmESE 15.0 21.0----29.83- 76.8 80.1----
2024-04-16 12:06 pmESE 15.0 19.0----29.83- 76.6 79.9----
2024-04-16 12:00 pmESE 15.0 19.0----29.83+0.05 76.5 79.7----
2024-04-16 11:54 amESE 15.9 19.0----29.83- 76.5 79.7----
2024-04-16 11:48 amESE 15.0 18.1----29.83- 76.5 79.5----
2024-04-16 11:42 amESE 14.0 17.1----29.83- 76.5 79.5----
2024-04-16 11:36 amESE 14.0 17.1----29.84- 76.1 79.3----
2024-04-16 11:30 amESE 14.0 18.1----29.84- 76.1 79.0----
2024-04-16 11:24 amESE 15.0 19.0----29.84- 76.1 78.8----
2024-04-16 11:18 amESE 14.0 19.0----29.84- 76.3 78.8----
2024-04-16 11:12 amESE 14.0 18.1----29.85- 75.9 78.6----
2024-04-16 11:06 am SE 13.0 18.1----29.84- 75.9 78.8----
2024-04-16 11:00 am SE 13.0 18.1----29.84+0.09 75.7 78.8----
2024-04-16 10:54 am SE 14.0 17.1----29.84- 75.7 78.8----
2024-04-16 10:48 am SE 15.9 18.1----29.84- 75.7 78.6----
2024-04-16 10:42 amESE 14.0 19.0----29.84- 75.7 78.3----
2024-04-16 10:36 am SE 13.0 18.1----29.83- 75.7 78.3----
2024-04-16 10:30 am SE 15.0 19.0----29.83- 75.7 78.3----
2024-04-16 10:24 am SE 15.9 19.0----29.83- 75.4 78.1----
2024-04-16 10:18 am SE 15.0 19.0----29.83- 75.4 77.9----
2024-04-16 10:12 am SE 15.9 21.0----29.82- 75.2 77.9----
2024-04-16 10:06 amESE 17.1 20.0----29.81- 75.2 77.7----
2024-04-16 10:00 amESE 15.9 20.0----29.81+0.08 75.0 77.7----
2024-04-16 09:54 amESE 15.0 22.9----29.81- 74.8 77.5----
2024-04-16 09:48 amESE 15.9 22.0----29.80- 74.8 77.5----
2024-04-16 09:42 amESE 18.1 21.0----29.80- 74.5 77.4----
2024-04-16 09:36 amESE 17.1 22.0----29.79- 74.5 77.4----
2024-04-16 09:30 amESE 15.9 21.0----29.79- 74.3 77.2----
2024-04-16 09:24 amESE 17.1 21.0----29.79- 74.3 77.2----
2024-04-16 09:18 amESE 15.0 20.0----29.80- 74.3 77.2----
2024-04-16 09:12 amESE 15.0 19.0----29.79- 74.1 77.2----
2024-04-16 09:06 amESE 15.0 19.0----29.79- 74.1 77.2----
2024-04-16 09:00 amESE 15.9 21.0----29.78+0.06 74.3 77.2----
2024-04-16 08:54 amESE 15.9 20.0----29.78- 74.1 77.2----
2024-04-16 08:48 amESE 15.9 20.0----29.77- 74.1 77.2----
2024-04-16 08:42 am SE 15.9 20.0----29.77- 74.1 77.2----
2024-04-16 08:36 amESE 15.9 20.0----29.77- 74.1 77.2----
2024-04-16 08:30 amESE 15.0 20.0----29.77- 73.9 77.2----
2024-04-16 08:24 amESE 15.0 20.0----29.76- 73.9 77.2----
2024-04-16 08:18 amESE 15.9 19.0----29.75- 73.8 77.2----
2024-04-16 08:12 amESE 15.9 22.0----29.75- 73.9 77.2----
2024-04-16 08:06 amESE 15.9 20.0----29.75- 73.8 77.2----
2024-04-16 08:00 amESE 15.0 19.0----29.75+0.03 73.8 77.2----
2024-04-16 07:54 amESE 15.0 19.0----29.75- 73.8 77.2----
2024-04-16 07:48 amESE 13.0 17.1----29.75- 73.8 77.2----
2024-04-16 07:42 amESE 13.0 19.0----29.75- 73.8 77.2----
2024-04-16 07:36 amESE 14.0 19.0----29.75- 73.8 77.2----
2024-04-16 07:30 amESE 12.0 17.1----29.75- 73.8 77.2----
2024-04-16 07:24 amESE 14.0 19.0----29.74- 73.8 77.2----
2024-04-16 07:18 amESE 15.0 18.1----29.74- 73.9 77.2----
2024-04-16 07:12 amESE 15.0 19.0----29.73- 73.8 77.2----
2024-04-16 07:06 amESE 15.9 20.0----29.73- 73.9 77.2----
2024-04-16 07:00 amESE 15.9 20.0----29.73+0.02 73.9 77.2----
2024-04-16 06:54 amESE 15.0 20.0----29.73- 73.8 77.4----
2024-04-16 06:48 amESE 15.0 18.1----29.74- 73.8 77.4----
2024-04-16 06:42 amESE 13.0 17.1----29.74- 73.8 77.4----
2024-04-16 06:36 amESE 13.0 17.1----29.74- 73.8 77.4----
2024-04-16 06:30 amESE 14.0 18.1----29.73- 73.9 77.4----
2024-04-16 06:24 amESE 15.0 18.1----29.73- 73.9 77.4----
2024-04-16 06:18 amESE 15.0 19.0----29.73- 73.9 77.4----
2024-04-16 06:12 amESE 13.0 18.1----29.73- 73.9 77.4----
2024-04-16 06:06 amESE 14.0 19.0----29.73- 73.8 77.4----
2024-04-16 06:00 am SE 14.0 17.1----29.73+0.00 73.8 77.4----
2024-04-16 05:54 amESE 13.0 15.9----29.72- 73.8 77.4----
2024-04-16 05:48 amESE 13.0 17.1----29.72- 73.8 77.5----
2024-04-16 05:42 amESE 13.0 15.9----29.72- 73.8 77.5----
2024-04-16 05:36 amESE 14.0 17.1----29.72- 73.8 77.5----
2024-04-16 05:30 amESE 12.0 15.9----29.72- 73.8 77.5----
2024-04-16 05:24 amESE 13.0 18.1----29.72- 73.8 77.5----
2024-04-16 05:18 amESE 13.0 15.9----29.72- 73.8 77.5----
2024-04-16 05:12 amESE 13.0 17.1----29.72- 73.8 77.5----
2024-04-16 05:06 amESE 15.0 19.0----29.72- 73.8 77.5----
2024-04-16 05:00 amESE 13.0 18.1----29.72-0.06 73.8 77.5----
2024-04-16 04:54 amESE 15.0 17.1----29.72- 73.8 77.5----
2024-04-16 04:48 amESE 13.0 18.1----29.72- 73.8 77.7----
2024-04-16 04:42 amESE 13.0 17.1----29.71- 73.8 77.7----
2024-04-16 04:36 amESE 13.0 20.0----29.72- 73.9 77.7----
2024-04-16 04:30 amESE 14.0 18.1----29.72- 73.8 77.7----
2024-04-16 04:24 amESE 15.0 19.0----29.72- 73.8 77.7----
2024-04-16 04:18 amESE 14.0 19.0----29.72- 73.8 77.9----
2024-04-16 04:12 amESE 15.0 19.0----29.71- 73.6 77.9----
2024-04-16 04:06 amESE 15.9 19.0----29.72- 73.6 77.9----
2024-04-16 04:00 amESE 15.0 20.0----29.72-0.07 73.8 77.9----
2024-04-16 03:54 amESE 15.0 18.1----29.72- 73.6 77.9----
2024-04-16 03:48 amESE 15.9 20.0----29.72- 73.6 77.7----
2024-04-16 03:42 amESE 15.9 19.0----29.72- 73.6 77.7----
2024-04-16 03:36 amESE 14.0 17.1----29.72- 73.6 77.7----
2024-04-16 03:30 amESE 14.0 17.1----29.72- 73.4 77.5----
2024-04-16 03:24 amESE 12.0 17.1----29.73- 73.4 77.5----
2024-04-16 03:18 amESE 14.0 17.1----29.73- 73.4 77.4----
2024-04-16 03:12 amESE 14.0 18.1----29.73- 73.2 77.4----
2024-04-16 03:06 amESE 15.0 18.1----29.73- 73.2 77.2----
2024-04-16 03:00 amESE 15.0 19.0----29.73-0.07 73.2 77.2----
2024-04-16 02:54 amESE 14.0 18.1----29.73- 73.2 77.2----
2024-04-16 02:48 amESE 14.0 19.0----29.74- 73.2 77.2----
2024-04-16 02:42 amESE 13.0 18.1----29.75- 73.4 77.2----
2024-04-16 02:36 amESE 12.0 15.9----29.76- 73.4 77.2----
2024-04-16 02:30 amESE 13.0 18.1----29.76- 73.4 77.2----
2024-04-16 02:24 amESE 13.0 18.1----29.76- 73.8 77.2----
2024-04-16 02:18 amESE 15.0 19.0----29.77- 73.8 77.2----
2024-04-16 02:12 amESE 12.0 15.0----29.77- 73.6 77.4----
2024-04-16 02:06 amESE 12.0 15.0----29.78- 73.6 77.4----
2024-04-16 02:00 amESE 12.0 15.0----29.78-0.03 73.6 77.4----
2024-04-16 01:54 amESE 13.0 15.9----29.78- 73.6 77.5----
2024-04-16 01:48 amESE 13.0 17.1----29.78- 73.6 77.5----
2024-04-16 01:42 amESE 14.0 17.1----29.78- 73.4 77.4----
2024-04-16 01:36 amESE 13.0 19.0----29.78- 73.6 77.4----
2024-04-16 01:30 amESE 15.0 19.0----29.77- 73.4 77.5----
2024-04-16 01:24 amESE 15.9 20.0----29.78- 73.6 77.9----
2024-04-16 01:18 amESE 15.9 19.0----29.78- 73.4 78.1----
2024-04-16 01:12 amESE 15.9 20.0----29.78- 73.2 78.3----
2024-04-16 01:06 amESE 17.1 20.0----29.78- 73.4 78.3----
2024-04-16 01:00 amESE 15.9 19.0----29.79+0.00 73.6 78.3----
2024-04-16 12:54 amESE 14.0 19.0----29.80- 73.8 78.3----
2024-04-16 12:48 amESE 15.0 19.0----29.79- 73.8 78.1----
2024-04-16 12:42 amESE 11.1 14.0----29.80- 73.4 78.1----
2024-04-16 12:36 amESE 11.1 12.0----29.80- 73.2 78.1----
2024-04-16 12:30 amESE 7.0 9.9----29.81- 73.2 77.9----
2024-04-16 12:24 am E 6.0 8.9----29.81- 73.2 77.9----
2024-04-16 12:18 am E 7.0 12.0----29.81- 73.2 77.7----
2024-04-16 12:12 am E 8.0 12.0----29.81- 73.2 77.7----
2024-04-16 12:06 amESE 8.0 13.0----29.80- 73.2 77.7----
2024-04-16 12:00 am E 9.9 15.0----29.80+0.04 73.0 77.7----
2024-04-15 11:54 pmESE 11.1 15.9----29.80- 73.2 77.7----
2024-04-15 11:48 pmESE 13.0 15.9----29.81- 73.4 77.7----
2024-04-15 11:42 pmESE 13.0 15.9----29.81- 73.4 77.9----
2024-04-15 11:36 pmESE 13.0 17.1----29.81- 73.2 77.9----
2024-04-15 11:30 pmESE 14.0 18.1----29.80- 73.4 77.7----
2024-04-15 11:24 pmESE 13.0 15.9----29.80- 73.2 77.7----
2024-04-15 11:18 pmESE 9.9 13.0----29.81- 73.2 77.9----
2024-04-15 11:12 pmESE 9.9 13.0----29.81- 73.0 77.9----
2024-04-15 11:06 pmESE 11.1 15.0----29.80- 73.2 77.9----
2024-04-15 11:00 pmESE 13.0 18.1----29.80+0.05 73.2 77.9----
2024-04-15 10:54 pmESE 13.0 15.9----29.80- 73.4 77.9----
2024-04-15 10:48 pmESE 13.0 15.9----29.80- 73.2 78.1----
2024-04-15 10:42 pmESE 14.0 19.0----29.81- 73.2 78.3----
2024-04-15 10:36 pmESE 14.0 18.1----29.80- 73.2 78.3----
2024-04-15 10:30 pmESE 15.9 19.0----29.80- 73.2 78.4----
2024-04-15 10:24 pmESE 15.0 19.0----29.80- 73.2 78.4----
2024-04-15 10:18 pmESE 14.0 19.0----29.80- 73.2 78.4----
2024-04-15 10:12 pmESE 15.9 21.0----29.79- 73.0 78.6----
2024-04-15 10:06 pmESE 14.0 20.0----29.79- 73.4 78.6----
2024-04-15 10:00 pmESE 18.1 20.0----29.79+0.04 73.2 78.8----
2024-04-15 09:54 pmESE 15.9 22.0----29.79- 73.4 78.8----
2024-04-15 09:48 pm SE 17.1 21.0----29.78- 73.4 79.0----
2024-04-15 09:42 pmESE 15.9 21.0----29.78- 73.4 78.8----
2024-04-15 09:36 pmESE 18.1 22.0----29.77- 73.4 78.8----
2024-04-15 09:30 pmESE 17.1 22.0----29.77-- 79.0----
2024-04-15 09:24 pmESE 17.1 22.0----29.77-- 79.0----
2024-04-15 09:18 pmESE 17.1 22.0----29.77- 73.6 79.2----
2024-04-15 09:12 pmESE 19.0 22.9----29.76- 73.6 79.3----
2024-04-15 09:06 pmESE 18.1 22.0----29.76- 73.6 79.3----
2024-04-15 09:00 pmESE 19.0 22.9----29.76+0.01 73.6 79.5----
2024-04-15 08:54 pmESE 19.0 22.0----29.76- 73.6 79.7----
2024-04-15 08:48 pmESE 18.1 22.0----29.76- 73.6 79.9----
2024-04-15 08:42 pmESE 17.1 22.0----29.76- 73.6 79.9----
2024-04-15 08:36 pmESE 15.0 21.0----29.77- 73.8 80.1----
2024-04-15 08:30 pmESE 17.1 22.0----29.77- 73.8 80.2----
2024-04-15 08:24 pmESE 15.9 22.0----29.77- 73.8 80.1----
2024-04-15 08:18 pmESE 17.1 21.0----29.76- 73.8 80.2----
2024-04-15 08:12 pmESE 17.1 21.0----29.76- 73.8 80.6----
2024-04-15 08:06 pmESE 17.1 21.0----29.76- 73.8 80.8----
2024-04-15 08:00 pmESE 17.1 22.0----29.76-0.01- 80.8----
2024-04-15 07:54 pmESE 17.1 22.0----29.76-- 81.0----
2024-04-15 07:48 pmESE 18.1 22.9----29.75- 73.8 81.3----
2024-04-15 07:42 pmESE 18.1 22.0----29.75- 73.8 81.3----
2024-04-15 07:36 pmESE 17.1 22.9----29.75- 73.8 81.3----
2024-04-15 07:30 pmESE 18.1 22.9----29.75- 73.8 81.5----
2024-04-15 07:24 pmESE 18.1 24.1----29.75- 73.8 81.7----
2024-04-15 07:18 pmESE 20.0 24.1----29.75-- 81.9----
2024-04-15 07:12 pmESE 20.0 22.9----29.75-- 81.9----
2024-04-15 07:06 pmESE 19.0 24.1----29.75-- 81.9----
2024-04-15 07:00 pmESE 20.0 24.1----29.75-0.03 73.8 81.7----
2024-04-15 06:54 pmESE 21.0 24.1----29.75- 73.9 81.7----
2024-04-15 06:48 pmESE 20.0 25.1----29.75- 73.9 81.7----
2024-04-15 06:42 pmESE 18.1 22.9----29.75- 73.9 81.5----
2024-04-15 06:36 pmESE 19.0 22.9----29.75- 73.9 81.7----
2024-04-15 06:30 pmESE 17.1 22.9----29.76- 73.9 81.7----
2024-04-15 06:24 pmESE 18.1 24.1----29.76- 74.1 81.7----
2024-04-15 06:18 pmESE 19.0 22.0----29.75- 73.9 81.9----
2024-04-15 06:12 pmESE 19.0 25.1----29.76- 74.1 81.7----
2024-04-15 06:00 pmESE 20.0 25.1----29.75-0.04 74.1 82.4----
2024-04-15 05:54 pmESE 19.0 22.9----29.75- 74.3 83.1----
2024-04-15 05:48 pmESE 20.0 24.1----29.75- 74.3 83.3----
2024-04-15 05:42 pmESE 21.0 26.0----29.75- 74.3 83.3----
2024-04-15 05:36 pmESE 20.0 25.1----29.76- 74.3 83.5----
2024-04-15 05:30 pmESE 20.0 27.0----29.76-- 83.3----
2024-04-15 05:24 pmESE 18.1 27.0----29.77-- 83.5----
2024-04-15 05:18 pmESE 20.0 25.1----29.76- 74.5 83.7----
2024-04-15 05:12 pmESE 20.0 25.1----29.76- 74.7 83.8----
2024-04-15 05:06 pmESE 18.1 24.1----29.77- 74.8 83.8----
2024-04-15 05:00 pmESE 18.1 25.1----29.77-0.05 74.8 83.7----
2024-04-15 04:54 pmESE 19.0 24.1----29.77- 74.7 83.3----
2024-04-15 04:48 pmESE 20.0 24.1----29.77- 74.7 83.1----
2024-04-15 04:42 pmESE 19.0 24.1----29.77- 74.7 83.8----
2024-04-15 04:36 pmESE 21.0 25.1----29.77- 74.8 84.0----
2024-04-15 04:30 pmESE 20.0 26.0----29.77- 74.8 84.0----
2024-04-15 04:24 pmESE 20.0 25.1----29.77- 74.8 84.2----
2024-04-15 04:18 pmESE 21.0 25.1------ 74.8 84.4----
2024-04-15 04:12 pmESE 19.0 25.1------ 75.0 84.4----
2024-04-15 04:06 pmESE 18.1 24.1------ 75.2 84.2----
2024-04-15 04:00 pmESE 19.0 25.1----29.78-0.06 75.2 84.4----
2024-04-15 03:54 pmESE 19.0 24.1----29.77- 75.0 84.4----
2024-04-15 03:48 pmESE 19.0 27.0----29.78- 75.2 84.4----
2024-04-15 03:42 pmESE 20.0 25.1----29.78- 75.0 84.4----
2024-04-15 03:36 pmESE 18.1 25.1----29.79- 75.2 84.4----
2024-04-15 03:30 pmESE 20.0 25.1----29.78- 75.2 84.6----
2024-04-15 03:24 pmESE 21.0 26.0----29.79- 75.2 84.6----
2024-04-15 03:18 pmESE 18.1 25.1----29.79- 75.2 84.6----
2024-04-15 03:12 pmESE 18.1 25.1----29.80- 75.4 84.7----
2024-04-15 03:06 pmESE 19.0 27.0----29.80- 75.4 84.6----
2024-04-15 03:00 pmESE 20.0 26.0----29.80-0.07 75.6 84.6----
2024-04-15 02:54 pmESE 21.0 26.0----29.79- 75.7 84.6----